�������l�o���
Date,Time,MP-1(��Sv/h),MP-2(��Sv/h),MP-3(��Sv/h),MP-4(��Sv/h),MP-5(��Sv/h),MP-6(��Sv/h),MP-7(��Sv/h),MP-8(��Sv/h),����,����(m/s),���J
2019/06/16,00:00,0.720,1.016,0.698,1.270,0.909,0.422,0.731,0.697,�k�k��,6.9,��
2019/06/16,00:10,0.722,1.018,0.698,1.272,0.908,0.423,0.730,0.697,�k,6.9,��
2019/06/16,00:20,0.719,1.015,0.700,1.271,0.908,0.424,0.731,0.698,�k,6.3,�L
2019/06/16,00:30,0.721,1.017,0.701,1.273,0.909,0.422,0.731,0.697,�k,5.2,�L
2019/06/16,00:40,0.723,1.018,0.699,1.275,0.909,0.421,0.730,0.697,�k,4.6,�L
2019/06/16,00:50,0.720,1.017,0.700,1.275,0.910,0.422,0.731,0.697,�k,4.7,�L
2019/06/16,01:00,0.721,1.018,0.699,1.278,0.909,0.424,0.730,0.698,�k,3.9,�L
2019/06/16,01:10,0.722,1.020,0.701,1.274,0.908,0.422,0.733,0.698,�k�k��,3.6,�L
2019/06/16,01:20,0.722,1.019,0.699,1.276,0.911,0.423,0.731,0.698,�k�k��,3.5,��
2019/06/16,01:30,0.721,1.019,0.701,1.276,0.912,0.423,0.730,0.698,�k,2.6,�L
2019/06/16,01:40,0.724,1.021,0.700,1.278,0.912,0.423,0.734,0.699,�k�k��,2.3,�L
2019/06/16,01:50,0.721,1.021,0.700,1.277,0.914,0.424,0.731,0.699,�k�k��,2.0,�L
2019/06/16,02:00,0.723,1.020,0.700,1.276,0.911,0.423,0.733,0.698,�k,0.8,�L
2019/06/16,02:10,0.724,1.022,0.701,1.276,0.912,0.424,0.733,0.699,�k,0.6,�L
2019/06/16,02:20,0.723,1.020,0.701,1.278,0.911,0.424,0.733,0.699,��,0.6,��
2019/06/16,02:30,0.721,1.022,0.703,1.278,0.912,0.424,0.731,0.697,��쓌,1.5,��
2019/06/16,02:40,0.723,1.024,0.702,1.280,0.914,0.424,0.732,0.699,�쓌,2.6,��
2019/06/16,02:50,0.722,1.022,0.703,1.280,0.914,0.424,0.732,0.700,�쓌,2.3,��
2019/06/16,03:00,0.722,1.021,0.702,1.281,0.911,0.424,0.734,0.701,���쓌,1.5,�L
2019/06/16,03:10,0.722,1.022,0.701,1.280,0.912,0.425,0.733,0.698,���k��,2.5,�L
2019/06/16,03:20,0.722,1.022,0.702,1.276,0.914,0.423,0.732,0.698,�k�k��,3.1,�L
2019/06/16,03:30,0.724,1.022,0.701,1.277,0.914,0.425,0.733,0.697,�k�k��,3.2,�L
2019/06/16,03:40,0.723,1.021,0.700,1.279,0.914,0.424,0.730,0.697,�k�k��,4.1,�L
2019/06/16,03:50,0.719,1.012,0.698,1.271,0.904,0.425,0.729,0.696,�k��,5.9,�L
2019/06/16,04:00,0.718,1.012,0.701,1.270,0.904,0.425,0.728,0.695,�k��,5.3,�L
2019/06/16,04:10,0.718,1.014,0.702,1.269,0.905,0.425,0.729,0.693,�k�k��,5.7,�L
2019/06/16,04:20,0.718,1.012,0.700,1.269,0.904,0.425,0.730,0.692,�k,4.0,�L
2019/06/16,04:30,0.718,1.011,0.702,1.270,0.904,0.426,0.730,0.695,�k�k��,4.5,�L
2019/06/16,04:40,0.718,1.009,0.699,1.265,0.905,0.425,0.727,0.694,�k,2.3,�L
2019/06/16,04:50,0.713,1.002,0.696,1.257,0.899,0.425,0.725,0.691,��,2.5,�L
2019/06/16,05:00,0.709,0.998,0.692,1.248,0.890,0.421,0.723,0.688,���쓌,4.7,�L
2019/06/16,05:10,0.700,0.987,0.687,1.238,0.884,0.418,0.722,0.686,�k�k��,4.3,�L
2019/06/16,05:20,0.708,0.994,0.691,1.248,0.890,0.419,0.721,0.687,�k�k��,3.4,�L
2019/06/16,05:30,0.709,0.999,0.693,1.252,0.894,0.422,0.722,0.691,�k��,4.1,�L
2019/06/16,05:40,0.711,1.003,0.693,1.255,0.896,0.423,0.723,0.690,�k��,3.7,��
2019/06/16,05:50,0.712,1.005,0.696,1.256,0.897,0.422,0.724,0.691,�k��,3.5,�L
2019/06/16,06:00,0.714,1.007,0.696,1.261,0.896,0.424,0.722,0.690,�k��,2.6,�L
2019/06/16,06:10,0.714,1.010,0.696,1.259,0.897,0.424,0.724,0.693,�k��,2.5,�L
2019/06/16,06:20,0.716,1.009,0.696,1.260,0.899,0.423,0.727,0.694,�k��,3.0,��
2019/06/16,06:30,0.719,1.010,0.695,1.261,0.901,0.423,0.725,0.694,�k��,2.3,��
2019/06/16,06:40,0.720,1.012,0.697,1.262,0.902,0.423,0.727,0.693,�k,1.7,��
2019/06/16,06:50,0.719,1.010,0.699,1.265,0.902,0.425,0.726,0.694,�k�k��,2.9,��
2019/06/16,07:00,0.717,1.011,0.697,1.267,0.902,0.425,0.728,0.694,�k�k��,2.2,��
2019/06/16,07:10,0.720,1.010,0.699,1.266,0.903,0.424,0.728,0.695,�k�k��,2.0,��
2019/06/16,07:20,0.719,1.012,0.699,1.267,0.904,0.423,0.729,0.694,�k�k��,1.7,��
2019/06/16,07:30,0.720,1.013,0.700,1.269,0.905,0.424,0.730,0.695,�k��,1.4,��
2019/06/16,07:40,0.720,1.013,0.697,1.268,0.903,0.423,0.729,0.694,�k,1.2,��
2019/06/16,07:50,0.719,1.014,0.698,1.267,0.905,0.423,0.731,0.696,�k��,0.9,��
2019/06/16,08:00,0.720,1.016,0.697,1.267,0.905,0.423,0.728,0.694,�k��,1.2,�L
2019/06/16,08:10,0.719,1.015,0.698,1.270,0.905,0.425,0.730,0.697,���k��,1.2,�L
2019/06/16,08:20,0.719,1.016,0.699,1.274,0.906,0.424,0.731,0.694,�k��,2.8,�L
2019/06/16,08:30,0.720,1.015,0.698,1.270,0.903,0.425,0.731,0.693,��,1.5,�L
2019/06/16,08:40,0.719,1.016,0.698,1.274,0.903,0.425,0.730,0.695,�쐼,3.4,�L
2019/06/16,08:50,0.720,1.016,0.699,1.271,0.904,0.425,0.731,0.693,�쐼,3.5,�L
2019/06/16,09:00,0.721,1.016,0.697,1.273,0.906,0.424,0.732,0.694,�쐼,3.2,��
2019/06/16,09:10,0.721,1.017,0.698,1.273,0.905,0.423,0.729,0.695,��쐼,2.6,�L
2019/06/16,09:20,0.721,1.015,0.699,1.273,0.906,0.422,0.731,0.694,���쐼,2.0,�L
2019/06/16,09:30,0.723,1.015,0.700,1.275,0.906,0.425,0.731,0.695,���쐼,2.0,�L
2019/06/16,09:40,0.722,1.017,0.700,1.276,0.908,0.425,0.732,0.695,��,1.2,��
2019/06/16,09:50,0.722,1.016,0.702,1.273,0.905,0.425,0.729,0.696,�쐼,2.0,��
2019/06/16,10:00,0.724,1.019,0.701,1.275,0.907,0.425,0.732,0.695,��,2.6,�L
2019/06/16,10:10,0.722,1.019,0.703,1.273,0.909,0.425,0.732,0.694,��쓌,5.0,�L
2019/06/16,10:20,0.724,1.020,0.701,1.277,0.909,0.425,0.733,0.696,��쓌,7.1,�L
2019/06/16,10:30,0.721,1.018,0.703,1.277,0.909,0.427,0.732,0.695,��쐼,5.3,�L
2019/06/16,10:40,0.722,1.021,0.702,1.277,0.910,0.424,0.732,0.697,��,5.9,�L
2019/06/16,10:50,0.724,1.020,0.701,1.277,0.909,0.425,0.734,0.695,��,4.3,��
2019/06/16,11:00,0.724,1.022,0.702,1.277,0.912,0.424,0.735,0.696,��,4.0,��
2019/06/16,11:10,0.726,1.022,0.703,1.276,0.914,0.427,0.735,0.696,��쓌,5.1,��
2019/06/16,11:20,0.724,1.023,0.701,1.277,0.913,0.428,0.735,0.696,��쓌,5.5,��
2019/06/16,11:30,0.726,1.024,0.701,1.277,0.912,0.426,0.734,0.696,��쓌,5.7,��
2019/06/16,11:40,0.728,1.024,0.703,1.278,0.912,0.426,0.735,0.698,��쓌,4.1,��
2019/06/16,11:50,0.727,1.026,0.701,1.280,0.914,0.427,0.735,0.697,��쓌,4.1,��
2019/06/16,12:00,0.727,1.025,0.704,1.277,0.915,0.427,0.734,0.696,��쐼,2.5,��
2019/06/16,12:10,0.728,1.028,0.703,1.277,0.913,0.426,0.736,0.698,��쐼,3.6,��
2019/06/16,12:20,0.728,1.028,0.704,1.280,0.915,0.427,0.737,0.698,��쐼,5.7,��
2019/06/16,12:30,0.727,1.026,0.703,1.278,0.919,0.427,0.736,0.698,�쐼,4.1,��
2019/06/16,12:40,0.727,1.028,0.702,1.279,0.918,0.428,0.737,0.697,�쐼,5.7,��
2019/06/16,12:50,0.729,1.029,0.704,1.282,0.918,0.428,0.738,0.697,�쐼,3.3,��
2019/06/16,13:00,0.728,1.027,0.704,1.283,0.920,0.429,0.738,0.698,���쐼,5.2,��
2019/06/16,13:10,0.729,1.025,0.702,1.283,0.918,0.427,0.737,0.699,��,5.5,�L
2019/06/16,13:20,0.727,1.028,0.704,1.284,0.916,0.428,0.737,0.699,��,8.7,�L
2019/06/16,13:30,0.730,1.030,0.705,1.281,0.918,0.428,0.737,0.698,���쐼,7.0,�L
2019/06/16,13:40,0.730,1.028,0.704,1.283,0.918,0.428,0.737,0.698,���쐼,6.2,��
2019/06/16,13:50,0.729,1.028,0.706,1.283,0.920,0.429,0.738,0.699,���쐼,4.0,��
2019/06/16,14:00,0.730,1.029,0.704,1.283,0.919,0.427,0.738,0.698,���쐼,6.3,��
2019/06/16,14:10,0.727,1.028,0.706,1.288,0.919,0.429,0.738,0.698,���쐼,7.3,��
2019/06/16,14:20,0.731,1.028,0.706,1.288,0.920,0.428,0.739,0.699,���쐼,7.9,��
2019/06/16,14:30,0.729,1.030,0.710,1.287,0.921,0.429,0.738,0.699,�쐼,6.6,��
2019/06/16,14:40,0.728,1.029,0.708,1.288,0.923,0.429,0.739,0.701,���쐼,4.8,��
2019/06/16,14:50,0.730,1.030,0.709,1.288,0.923,0.429,0.739,0.702,���쐼,8.2,��
2019/06/16,15:00,0.730,1.031,0.709,1.286,0.921,0.431,0.740,0.700,�쐼,6.3,��
2019/06/16,15:10,0.731,1.030,0.708,1.288,0.921,0.431,0.739,0.699,�쐼,5.3,��
2019/06/16,15:20,0.729,1.029,0.707,1.288,0.923,0.431,0.741,0.699,���쐼,3.9,��
2019/06/16,15:30,0.731,1.031,0.708,1.287,0.922,0.429,0.739,0.700,���쐼,6.5,��
2019/06/16,15:40,0.729,1.031,0.707,1.288,0.923,0.429,0.739,0.699,���쐼,7.7,��
2019/06/16,15:50,0.731,1.030,0.707,1.289,0.926,0.430,0.739,0.701,���쐼,8.4,��
2019/06/16,16:00,0.731,1.030,0.710,1.290,0.925,0.430,0.739,0.700,���쐼,8.7,��
2019/06/16,16:10,0.730,1.032,0.709,1.289,0.927,0.430,0.740,0.701,���쐼,9.7,��
2019/06/16,16:20,0.732,1.032,0.707,1.289,0.924,0.430,0.739,0.700,��,6.7,��
2019/06/16,16:30,0.733,1.032,0.708,1.290,0.925,0.432,0.740,0.700,���쐼,5.6,��
2019/06/16,16:40,0.731,1.033,0.709,1.290,0.926,0.430,0.741,0.700,���쐼,6.5,��
2019/06/16,16:50,0.732,1.034,0.708,1.291,0.926,0.429,0.739,0.701,��,7.6,��
2019/06/16,17:00,0.730,1.036,0.710,1.291,0.927,0.431,0.740,0.701,���쐼,4.2,��
2019/06/16,17:10,0.731,1.035,0.709,1.290,0.926,0.430,0.740,0.701,��쐼,2.9,��
2019/06/16,17:20,0.733,1.035,0.709,1.291,0.929,0.431,0.740,0.700,��,1.4,��
2019/06/16,17:30,0.732,1.034,0.708,1.290,0.926,0.430,0.739,0.702,���쐼,2.8,��
2019/06/16,17:40,0.733,1.033,0.708,1.293,0.926,0.430,0.741,0.702,�쐼,3.7,��
2019/06/16,17:50,0.733,1.035,0.710,1.291,0.928,0.429,0.741,0.701,�쐼,5.1,��
2019/06/16,18:00,0.732,1.034,0.710,1.293,0.929,0.431,0.741,0.702,�쐼,6.1,��
2019/06/16,18:10,0.731,1.035,0.711,1.295,0.926,0.429,0.741,0.703,�쐼,4.5,��
2019/06/16,18:20,0.730,1.035,0.711,1.294,0.928,0.430,0.741,0.703,���쐼,6.1,��
2019/06/16,18:30,0.732,1.035,0.712,1.293,0.926,0.429,0.738,0.703,���쐼,7.9,��
2019/06/16,18:40,0.731,1.035,0.711,1.295,0.928,0.430,0.742,0.703,�쐼,8.2,��
2019/06/16,18:50,0.732,1.034,0.712,1.294,0.929,0.429,0.741,0.702,��,6.6,��
2019/06/16,19:00,0.730,1.035,0.709,1.296,0.928,0.428,0.739,0.702,��,7.7,��
2019/06/16,19:10,0.731,1.035,0.711,1.295,0.930,0.430,0.740,0.701,��,7.4,��
2019/06/16,19:20,0.733,1.035,0.711,1.294,0.929,0.430,0.741,0.702,���쐼,7.0,��
2019/06/16,19:30,0.733,1.035,0.711,1.293,0.928,0.430,0.741,0.704,���쐼,8.5,��
2019/06/16,19:40,0.732,1.036,0.711,1.295,0.930,0.429,0.741,0.703,��,8.9,��
2019/06/16,19:50,0.731,1.039,0.711,1.295,0.930,0.428,0.741,0.702,���쐼,10.8,��
2019/06/16,20:00,0.731,1.039,0.712,1.294,0.931,0.429,0.740,0.702,���쐼,10.8,��
2019/06/16,20:10,0.732,1.036,0.712,1.295,0.929,0.430,0.740,0.703,���쐼,10.2,��
2019/06/16,20:20,0.734,1.037,0.712,1.295,0.932,0.430,0.740,0.703,���쐼,9.9,��
2019/06/16,20:30,0.735,1.038,0.710,1.296,0.930,0.430,0.741,0.703,���쐼,11.6,��
2019/06/16,20:40,0.731,1.038,0.711,1.296,0.932,0.428,0.740,0.701,���쐼,11.9,��
2019/06/16,20:50,0.731,1.037,0.709,1.296,0.931,0.429,0.739,0.702,���쐼,11.4,��
2019/06/16,21:00,0.734,1.038,0.711,1.295,0.930,0.430,0.741,0.703,���쐼,11.6,��
2019/06/16,21:10,0.732,1.041,0.711,1.296,0.933,0.431,0.741,0.705,���쐼,9.6,��
2019/06/16,21:20,0.731,1.038,0.712,1.295,0.931,0.428,0.740,0.705,���쐼,8.1,��
2019/06/16,21:30,0.731,1.040,0.712,1.296,0.933,0.429,0.741,0.704,���쐼,7.5,��
2019/06/16,21:40,0.733,1.035,0.711,1.298,0.931,0.430,0.740,0.702,���쐼,9.4,��
2019/06/16,21:50,0.732,1.037,0.711,1.297,0.932,0.429,0.740,0.704,��,8.8,��
2019/06/16,22:00,0.731,1.036,0.712,1.296,0.932,0.431,0.741,0.703,��,8.2,��
2019/06/16,22:10,0.731,1.035,0.711,1.300,0.932,0.430,0.740,0.706,���쐼,9.4,��
2019/06/16,22:20,0.734,1.037,0.714,1.300,0.933,0.430,0.739,0.704,���쐼,9.2,��
2019/06/16,22:30,0.733,1.039,0.714,1.302,0.934,0.429,0.740,0.704,��,10.5,��
2019/06/16,22:40,0.734,1.040,0.714,1.303,0.934,0.430,0.740,0.703,��,10.6,��
2019/06/16,22:50,0.732,1.041,0.713,1.303,0.934,0.429,0.740,0.703,��,9.4,�L
2019/06/16,23:00,0.734,1.041,0.715,1.303,0.935,0.429,0.739,0.703,��,6.8,��
2019/06/16,23:10,0.734,1.043,0.712,1.300,0.935,0.428,0.741,0.704,��,5.2,��
2019/06/16,23:20,0.733,1.042,0.714,1.301,0.936,0.428,0.742,0.704,��,4.9,��
2019/06/16,23:30,0.734,1.042,0.713,1.304,0.935,0.430,0.740,0.702,��,4.7,��
2019/06/16,23:40,0.735,1.044,0.714,1.303,0.934,0.431,0.741,0.704,��,6.4,��
2019/06/16,23:50,0.733,1.043,0.714,1.306,0.934,0.429,0.740,0.705,��,6.5,��
